This is the latest recevied weather packets stored in our database for station/object KA1JKB. If no packets are shown the sender has not sent any weather packets the latest 10 day(s).
| Time | Temp. | Humidity | Pressure | Rain* | Wind** | Luminosity | Snow |
|---|---|---|---|---|---|---|---|
| 1777238159 | 17.22° C | 65% | 1017.1 hPa | 0 mm | - | 483 W/m² | - |
| 1777237857 | 16.67° C | 67% | 1017.1 hPa | 0 mm | - | 512 W/m² | - |
| 1777237553 | 17.22° C | 68% | 1017.1 hPa | 0 mm | - | 517 W/m² | - |
| 1777237251 | 17.22° C | 66% | 1017.1 hPa | 0 mm | - | 586 W/m² | - |
| 1777236948 | 17.22° C | 67% | 1017 hPa | 0 mm | - | 548 W/m² | - |
| 1777236644 | 16.67° C | 66% | 1017.2 hPa | 0 mm | - | 610 W/m² | - |
| 1777236339 | 16.11° C | 65% | 1017.1 hPa | 0 mm | - | 577 W/m² | - |
| 1777236036 | 16.67° C | 64% | 1017 hPa | 0 mm | - | 219 W/m² | - |
| 1777235732 | 16.67° C | 64% | 1017.2 hPa | 0 mm | - | 410 W/m² | - |
| 1777235429 | 16.67° C | 63% | 1017.2 hPa | 0 mm | - | 514 W/m² | - |
| 1777235126 | 16.67° C | 64% | 1017.3 hPa | 0 mm | - | 440 W/m² | - |
| 1777234821 | 16.67° C | 64% | 1017.1 hPa | 0 mm | - | 497 W/m² | - |
| 1777234517 | 16.67° C | 62% | 1017.3 hPa | 0 mm | - | 498 W/m² | - |
| 1777234217 | 16.67° C | 63% | 1017.2 hPa | 0 mm | - | 582 W/m² | - |
| 1777233914 | 16.67° C | 61% | 1017.2 hPa | 0 mm | - | 586 W/m² | - |
| 1777233610 | 16.67° C | 62% | 1017.1 hPa | 0 mm | - | 619 W/m² | - |
| 1777233309 | 16.67° C | 62% | 1017.1 hPa | 0 mm | - | 556 W/m² | - |
| 1777233005 | 16.67° C | 61% | 1017.4 hPa | 0 mm | - | 635 W/m² | - |
| 1777232702 | 16.67° C | 64% | 1017.1 hPa | 0 mm | - | 655 W/m² | - |
| 1777232401 | 16.67° C | 61% | 1017.3 hPa | 0 mm | - | 652 W/m² | - |
| 1777232097 | 16.11° C | 62% | 1017.5 hPa | 0 mm | - | 631 W/m² | - |
| 1777231794 | 16.67° C | 60% | 1017.3 hPa | 0 mm | - | 616 W/m² | - |
| 1777231490 | 16.67° C | 63% | 1017.2 hPa | 0 mm | - | 658 W/m² | - |
| 1777231187 | 16.67° C | 62% | 1017.3 hPa | 0 mm | - | 676 W/m² | - |
| 1777230883 | 16.67° C | 62% | 1017.4 hPa | 0 mm | - | 666 W/m² | - |
* Rain latest hour (hover to see other rain measurements)
** Current wind speed in m/s (hover to see current wind gust speed)